ANDOYA/ANDENES(AFB) current weather conditions

sailwx.info

Wind from 180 at 5 knots

Air temperature -8.0° C
Visibility: greater than 5.4 NM
Dewpoint -12.0° C

Last reported at 2018-Jan-19 22:50 UTC.
Time now 2018-Jan-20 07:28 UTC

Location: N 69°18' E 016°08'.
View on Google Maps.

See reports from other nearby stations

  
Tides and Currents Weather Stations Pressure Air Temp Water Temp Dewpoint Dewpoint Depression Visibility Wind Speed Wind Dir Waves Ship Positions
date/time (UTC)wind fromknots sea level pressurealtimeterstation pressurevisibilityair tempwater tempwave heightnotes
2018-Jan-19 22:50 180 5 5.4-8.0
2018-Jan-19 22:20 190 5 5.4-8.0
2018-Jan-19 21:50 190 5 5.4-7.0
2018-Jan-19 21:20 200 8 5.4-7.0
2018-Jan-19 20:50 190 6 5.4-7.0
2018-Jan-19 20:20 160 11 5.4-5.0
2018-Jan-19 19:50 150 13 5.4-5.0
2018-Jan-19 19:20 150 12 5.4-5.0
2018-Jan-19 18:20 150 12 5.4-5.0
2018-Jan-19 17:50 150 11 5.4-4.0
2018-Jan-19 17:20 150 12 5.4-4.0
2018-Jan-19 16:50 150 12 5.4-5.0
2018-Jan-19 16:20 150 12 5.4-4.0
2018-Jan-19 15:50 150 12 5.4-4.0
2018-Jan-19 15:20 150 13 5.4-4.0
2018-Jan-19 14:50 150 13 5.4-4.0
2018-Jan-19 14:20 150 12 5.4-4.0
2018-Jan-19 13:50 160 12 5.4-4.0
2018-Jan-19 13:20 160 13 5.4-4.0
2018-Jan-19 12:50 150 13 5.4-4.0
2018-Jan-19 12:20 150 13 5.4-4.0
2018-Jan-19 11:50 150 12 5.4-4.0
2018-Jan-19 11:20 150 13 5.4-4.0
2018-Jan-19 10:50 150 13 5.4-4.0
2018-Jan-19 10:20 150 11 5.4-4.0
2018-Jan-19 09:50 160 11 5.4-4.0
2018-Jan-19 09:20 150 11 5.4-4.0
2018-Jan-19 08:50 150 13 5.4-4.0
2018-Jan-19 08:20 130 13 5.4-4.0
2018-Jan-19 07:50 130 15 5.4-4.0
2018-Jan-19 07:20 150 13 5.4-4.0
2018-Jan-19 06:50 160 12 5.4-4.0
2018-Jan-19 06:20 150 12 5.4-4.0
2018-Jan-19 05:50 150 13 5.4-4.0
2018-Jan-19 05:20 160 14 5.4-4.0
2018-Jan-19 04:50 150 14 5.4-4.0
2018-Jan-19 04:20 150 15 5.4-4.0
2018-Jan-19 03:50 140 15 5.4-4.0
2018-Jan-19 03:20 150 18 5.4-4.0
2018-Jan-19 02:50 150 17 5.4-4.0
2018-Jan-19 02:20 140 18 5.4-4.0
2018-Jan-19 01:50 140 18 5.4-4.0
2018-Jan-19 01:20 150 15 5.4-4.0
2018-Jan-19 00:50 150 15 5.4-4.0
2018-Jan-19 00:20 150 17 gusting 27 5.4-4.0
2018-Jan-18 23:50 160 17 5.4-4.0
2018-Jan-18 23:20 160 15 5.4-4.0
2018-Jan-18 22:50 150 15 5.4-4.0
2018-Jan-18 22:20 150 15 5.4-4.0
2018-Jan-18 21:50 160 14 5.4-4.0
2018-Jan-18 21:20 150 15 5.4-4.0
2018-Jan-18 20:50 150 17 5.4-5.0
2018-Jan-18 20:20 150 15 5.4-5.0
2018-Jan-18 19:50 160 17 5.4-5.0
2018-Jan-18 19:20 160 14 5.4-5.0
2018-Jan-18 18:50 160 17 5.4-5.0
2018-Jan-18 18:20 180 11 5.4-5.0
2018-Jan-18 17:50 170 12 5.4-5.0
2018-Jan-18 17:20 180 12 5.4-6.0
2018-Jan-18 16:50 160 15 5.4-5.0
2018-Jan-18 16:20 160 17 5.4-5.0
2018-Jan-18 15:50 160 17 5.4-6.0
2018-Jan-18 15:20 160 17 5.4-5.0
2018-Jan-18 14:50 160 19 5.4-5.0
2018-Jan-18 14:20 160 15 5.4-6.0
2018-Jan-18 13:50 150 20 5.4-6.0
2018-Jan-18 13:20 150 18 5.4-6.0
2018-Jan-18 12:50 150 20 5.4-6.0
2018-Jan-18 12:20 160 19 5.4-5.0
2018-Jan-18 11:50 160 18 5.4-6.0
2018-Jan-18 11:20 160 17 5.4-5.0
2018-Jan-18 10:50 160 18 5.4-5.0
2018-Jan-18 10:20 150 20 5.4-5.0
2018-Jan-18 09:50 150 17 5.4-5.0
2018-Jan-18 09:20 160 17 5.4-5.0
2018-Jan-18 08:50 190 13 5.4-6.0
2018-Jan-18 08:20 180 14 5.4-5.0
2018-Jan-18 07:50 190 14 5.4-5.0
2018-Jan-18 07:20 180 19 5.4-5.0